MST,Max TemperatureF,Mean TemperatureF,Min TemperatureF,Max Dew PointF,MeanDew PointF,Min DewpointF,Max Humidity, Mean Humidity, Min Humidity, Max Sea Level PressureIn, Mean Sea Level PressureIn, Min Sea Level PressureIn, Max VisibilityMiles, Mean VisibilityMiles, Min VisibilityMiles, Max Wind SpeedMPH, Mean Wind SpeedMPH, Max Gust SpeedMPH,PrecipitationIn, CloudCover, Events, WindDirDegrees
2012-11-1,62,50,37,30,27,22,64,44,24,29.95,29.86,29.76,10,10,10,14,5,25,0.00,1,,299
2012-11-2,56,45,34,27,23,20,70,48,26,30.14,30.02,29.89,10,10,10,12,7,,0.00,0,,250
2012-11-3,58,43,28,24,18,14,69,45,20,30.22,30.13,30.07,10,10,10,12,4,,0.00,0,,201
2012-11-4,63,49,34,27,23,13,56,41,25,30.32,30.19,30.09,10,10,10,23,6,30,0.00,0,,199
2012-11-5,66,50,34,31,27,17,70,45,19,30.26,30.16,30.05,10,10,10,12,4,17,0.00,0,,120
2012-11-6,64,52,39,30,23,16,48,36,23,30.24,30.12,30.02,10,10,10,14,5,,0.00,0,,147
2012-11-7,69,50,31,26,23,21,56,37,17,30.02,29.89,29.76,10,10,10,18,7,28,0.00,0,,246
2012-11-8,53,43,32,29,25,22,70,53,35,29.85,29.71,29.58,10,10,10,14,7,20,0.00,0,,303
2012-11-9,55,41,26,40,29,23,100,68,35,29.59,29.51,29.39,10,4,0,43,15,53,0.33,6,Fog-Rain-Snow,321
2012-11-10,26,20,14,25,19,10,100,89,77,30.03,29.69,29.56,10,3,0,10,5,17,0.16,8,Fog-Snow,46
2012-11-11,24,14,3,13,6,1,92,74,56,30.35,30.08,29.86,10,8,0,9,4,13,T,2,Fog-Snow,189
2012-11-12,29,19,9,19,11,2,84,69,53,30.44,30.36,30.31,10,10,7,6,2,13,0.00,0,,292
2012-11-13,41,32,22,26,21,17,84,69,54,30.36,30.28,30.22,10,10,9,9,4,13,0.00,0,,256
2012-11-14,43,32,20,26,21,16,84,64,43,30.29,30.22,30.12,10,10,10,13,2,17,0.00,0,,283
2012-11-15,42,33,23,24,20,16,75,58,41,30.39,30.30,30.22,10,10,10,10,3,13,0.00,0,,301
2012-11-16,44,33,21,25,22,16,84,67,49,30.22,30.14,30.05,10,10,9,10,2,14,0.00,1,,313
2012-11-17,49,37,25,28,25,22,75,59,42,30.15,30.04,29.91,10,10,10,12,4,12,0.00,1,,302
2012-11-18,51,40,29,32,28,26,85,66,46,30.06,29.93,29.85,10,10,10,25,4,32,0.00,1,,252
2012-11-19,51,40,29,29,27,24,78,62,46,30.19,30.13,30.04,10,10,10,14,5,15,0.00,1,,289
2012-11-20,55,42,29,30,28,25,78,58,38,30.15,30.07,29.94,10,10,10,13,5,18,0.00,0,,283
2012-11-21,63,46,29,29,25,23,78,51,23,29.92,29.82,29.73,10,10,10,38,10,49,0.00,1,,309
2012-11-22,46,35,23,26,11,7,59,41,22,30.52,30.24,29.82,10,10,10,25,6,32,0.00,0,,140
2012-11-23,40,29,18,17,14,9,68,53,37,30.52,30.40,30.20,10,10,10,14,4,15,0.00,0,,17
2012-11-24,57,41,25,27,20,16,68,44,19,30.18,30.03,29.89,10,10,10,13,4,21,0.00,1,,125
2012-11-25,46,37,28,30,27,20,85,67,49,30.16,29.91,29.81,10,10,10,16,4,18,0.00,3,,28
2012-11-26,37,30,22,21,17,10,88,66,44,30.36,30.24,30.18,10,10,9,10,3,14,0.00,3,,257
2012-11-27,49,33,16,22,13,8,67,43,19,30.25,30.19,30.13,10,10,10,16,3,18,0.00,0,,125
2012-11-28,54,42,29,21,16,12,63,42,20,30.18,30.07,29.93,10,10,10,12,3,16,0.00,0,,172
2012-11-29,52,41,30,24,21,17,61,47,32,30.01,29.96,29.86,10,10,10,15,4,17,0.00,1,,124
2012-11-30,54,41,28,31,24,19,63,49,35,29.94,29.81,29.70,10,10,9,26,7,36,0.00,1,,288